Date String (YYYY-MM-DD hh:mm:ss) UTC,Instrument flags,Ambient pressure (hPa),Sample flow (lpm),Bypass flow (lpm),Sample temperature (°C),Ambient temperature (°C),ASC tube jacket temperature (°C),LED temperature (°C),Box temperature (°C),Sample RH (%),Span deviation,Mass concentration (μg/m³),Mass concentration (μg/m³),Mass concentration (μg/m³)
DateTimeUTC,F1_M11,P_M11,Q1_M11,Q2_M11,T1_M11,T2_M11,T3_M11,T4_M11,T5_M11,U1_M11,ZSPAN_M11,X0_M11,X2_M11,X1_M11
2022-03-23 05:00:00,,0829.5,5.01,0.00,22.1,22.8,00.0,30.8,24.0,08.3,0000.0,0001.56,0000.77,0000.45
2022-03-23 05:01:00,,0829.5,5.00,0.00,22.1,22.5,00.0,30.9,24.0,08.2,0000.0,0001.57,0000.77,0000.46
2022-03-23 05:02:00,,0829.5,4.99,0.00,22.1,22.2,00.0,30.9,23.9,08.1,0000.0,0001.58,0000.77,0000.45
2022-03-23 05:03:00,,0829.5,4.99,0.00,22.0,22.0,00.0,30.9,23.8,08.2,0000.0,0001.51,0000.75,0000.45
2022-03-23 05:04:00,,0829.5,5.01,0.00,22.0,21.8,00.0,30.9,23.8,08.2,0000.0,0001.56,0000.76,0000.44
2022-03-23 05:05:00,,0829.4,4.99,0.00,22.0,21.6,00.0,30.9,23.8,08.2,0000.0,0001.55,0000.75,0000.44
2022-03-23 05:06:00,,0829.4,5.00,0.00,22.0,21.5,00.0,30.9,23.7,08.3,0000.0,0001.41,0000.75,0000.45
2022-03-23 05:07:00,,0829.5,5.01,0.00,22.0,21.4,00.0,30.9,23.7,08.3,0000.0,0001.37,0000.74,0000.46
2022-03-23 05:08:00,,0829.5,5.00,0.00,21.9,21.3,00.0,30.9,23.6,08.4,0000.0,0001.30,0000.70,0000.45
2022-03-23 05:09:00,,0829.4,4.99,0.00,21.9,21.2,00.0,30.9,23.6,08.5,0000.0,0001.15,0000.64,0000.45
2022-03-23 05:10:00,,0829.4,5.01,0.00,21.9,21.2,00.0,30.9,23.5,08.6,0000.0,0001.08,0000.61,0000.45
2022-03-23 05:11:00,,0829.4,4.99,0.00,21.9,21.1,00.0,30.9,23.5,08.6,0000.0,0001.06,0000.60,0000.45
2022-03-23 05:12:00,,0829.4,5.00,0.00,21.8,21.0,00.0,30.9,23.5,08.7,0000.0,0001.15,0000.63,0000.45
2022-03-23 05:13:00,,0829.3,5.01,0.00,21.8,21.0,00.0,30.9,23.5,08.6,0000.0,0001.20,0000.65,0000.46
2022-03-23 05:14:00,,0829.4,5.00,0.00,21.8,21.0,00.0,30.9,23.5,08.6,0000.0,0001.81,0000.68,0000.46
2022-03-23 05:15:00,,0829.3,5.00,0.00,21.8,21.0,00.0,30.8,23.4,08.6,0000.0,0002.04,0000.65,0000.46
2022-03-23 05:16:00,,0829.4,5.00,0.00,21.8,20.9,00.0,30.8,23.4,08.6,0000.0,0001.94,0000.62,0000.46
2022-03-23 05:17:00,,0829.4,4.98,0.00,21.7,20.9,00.0,30.8,23.4,08.7,0000.0,0001.91,0000.61,0000.46
2022-03-23 05:18:00,,0829.5,5.00,0.00,21.7,20.9,00.0,30.8,23.4,08.8,0000.0,0001.98,0000.64,0000.46
2022-03-23 05:19:00,,0829.5,5.01,0.00,21.7,20.9,00.0,30.8,23.3,08.8,0000.0,0001.97,0000.64,0000.46
2022-03-23 05:20:00,,0829.4,5.01,0.00,21.7,20.8,00.0,30.8,23.3,08.7,0000.0,0001.99,0000.65,0000.47
2022-03-23 05:21:00,,0829.4,5.00,0.00,21.6,20.8,00.0,30.8,23.3,08.7,0000.0,0002.02,0000.66,0000.47
2022-03-23 05:22:00,,0829.4,4.99,0.00,21.7,21.5,00.0,30.8,23.5,08.6,0000.0,0002.08,0000.69,0000.48
2022-03-23 05:23:00,,0829.3,5.01,0.00,21.9,22.4,00.0,30.8,23.8,08.5,0000.0,0002.10,0000.72,0000.48
2022-03-23 05:24:00,,0829.3,5.00,0.00,22.0,23.0,00.0,30.9,24.0,08.3,0000.0,0002.09,0000.73,0000.49
2022-03-23 05:25:00,,0829.3,4.99,0.00,22.1,22.8,00.0,30.9,24.0,08.3,0000.0,0001.69,0000.71,0000.48
2022-03-23 05:26:00,,0829.3,5.00,0.00,22.1,22.5,00.0,30.9,24.0,08.2,0000.0,0001.22,0000.73,0000.49
2022-03-23 05:27:00,,0829.5,4.99,0.00,22.1,22.2,00.0,30.9,23.9,08.2,0000.0,0001.25,0000.74,0000.50
2022-03-23 05:28:00,,0829.4,5.01,0.00,22.0,22.0,00.0,30.9,23.9,08.2,0000.0,0001.30,0000.75,0000.50
2022-03-23 05:29:00,,0829.2,4.99,0.00,22.0,21.8,00.0,30.9,23.8,08.2,0000.0,0001.29,0000.75,0000.50
2022-03-23 05:30:00,,0829.2,5.01,0.00,22.0,21.6,00.0,30.9,23.8,08.2,0000.0,0001.34,0000.75,0000.49
2022-03-23 05:31:00,,0829.2,5.00,0.00,22.0,21.5,00.0,30.9,23.7,08.2,0000.0,0001.41,0000.76,0000.48
2022-03-23 05:32:00,,0829.2,5.00,0.00,22.0,21.4,00.0,30.9,23.7,08.2,0000.0,0001.45,0000.77,0000.48
2022-03-23 05:33:00,,0829.2,4.99,0.00,22.0,21.3,00.0,30.9,23.7,08.2,0000.0,0001.42,0000.75,0000.47
2022-03-23 05:34:00,,0829.2,5.00,0.00,21.9,21.3,00.0,30.9,23.6,08.2,0000.0,0001.36,0000.73,0000.47
2022-03-23 05:35:00,,0829.2,5.00,0.00,21.9,21.2,00.0,30.9,23.6,08.2,0000.0,0001.32,0000.68,0000.46
2022-03-23 05:36:00,,0829.2,5.00,0.00,21.9,21.1,00.0,30.9,23.6,08.2,0000.0,0001.52,0000.71,0000.46
2022-03-23 05:37:00,,0829.2,5.00,0.00,21.9,21.1,00.0,30.9,23.6,08.2,0000.0,0001.52,0000.70,0000.45
2022-03-23 05:38:00,,0829.3,5.00,0.00,21.8,21.1,00.0,30.9,23.5,08.3,0000.0,0001.51,0000.70,0000.45
2022-03-23 05:39:00,,0829.4,5.00,0.00,21.8,21.0,00.0,30.9,23.5,08.3,0000.0,0001.51,0000.71,0000.46
2022-03-23 05:40:00,,0829.3,5.00,0.00,21.8,21.0,00.0,30.9,23.5,08.3,0000.0,0001.53,0000.71,0000.45
2022-03-23 05:41:00,,0829.2,5.00,0.00,21.8,21.0,00.0,30.9,23.5,08.3,0000.0,0001.46,0000.70,0000.45
2022-03-23 05:42:00,,0829.2,4.99,0.00,21.8,20.9,00.0,30.9,23.5,08.3,0000.0,0001.40,0000.70,0000.45
2022-03-23 05:43:00,,0829.2,5.00,0.00,21.8,20.9,00.0,30.8,23.4,08.4,0000.0,0001.38,0000.69,0000.46
2022-03-23 05:44:00,,0829.2,5.00,0.00,21.7,20.9,00.0,30.8,23.4,08.4,0000.0,0001.34,0000.69,0000.46
2022-03-23 05:45:00,,0829.2,5.00,0.00,21.7,20.9,00.0,30.8,23.4,08.4,0000.0,0001.39,0000.70,0000.46
2022-03-23 05:46:00,,0829.3,5.00,0.00,21.7,20.9,00.0,30.8,23.3,08.4,0000.0,0001.56,0000.72,0000.46
2022-03-23 05:47:00,,0829.2,5.01,0.00,21.7,21.5,00.0,30.8,23.5,08.4,0000.0,0001.61,0000.69,0000.46
2022-03-23 05:48:00,,0829.2,5.00,0.00,21.9,22.5,00.0,30.8,23.8,08.4,0000.0,0001.59,0000.69,0000.46
2022-03-23 05:49:00,,0829.2,4.99,0.00,22.0,23.2,00.0,30.9,24.0,08.3,0000.0,0001.64,0000.71,0000.45
2022-03-23 05:50:00,,0829.2,4.99,0.00,22.1,23.0,00.0,30.9,24.1,08.3,0000.0,0001.61,0000.71,0000.45
2022-03-23 05:51:00,,0829.2,5.00,0.00,22.1,22.6,00.0,30.9,24.0,08.3,0000.0,0001.58,0000.72,0000.45
2022-03-23 05:52:00,,0829.2,4.99,0.00,22.1,22.3,00.0,30.9,24.0,08.3,0000.0,0001.56,0000.72,0000.45
2022-03-23 05:53:00,,0829.2,5.01,0.00,22.1,22.1,00.0,31.0,23.9,08.3,0000.0,0001.85,0000.73,0000.45
2022-03-23 05:54:00,,0829.2,5.00,0.00,22.1,21.9,00.0,31.0,23.8,08.3,0000.0,0002.76,0000.72,0000.45
2022-03-23 05:55:00,,0829.2,5.00,0.00,22.1,21.7,00.0,31.0,23.8,08.3,0000.0,0002.97,0000.75,0000.44
2022-03-23 05:56:00,,0829.2,4.99,0.00,22.0,21.6,00.0,31.0,23.8,08.3,0000.0,0003.06,0000.78,0000.45
2022-03-23 05:57:00,,0829.2,5.00,0.00,22.0,21.5,00.0,31.0,23.7,08.3,0000.0,0003.05,0000.78,0000.45
2022-03-23 05:58:00,,0829.2,5.00,0.00,22.0,21.4,00.0,31.0,23.7,08.4,0000.0,0002.70,0000.78,0000.46
2022-03-23 05:59:00,,0829.2,5.00,0.00,22.0,21.3,00.0,31.0,23.7,08.5,0000.0,0002.64,0000.76,0000.46
